Theta_e
351 358 363 360 360 360 361 361 362 363 362 361 361 359 357 356 353 352 351 351 350 350 348 344 344 345 345 342 340 341 342 342 347 353 352 348 343 354 348 352 353 352 352
355 357 361 360 361 359 359 360 360 361 361 360 358 356 353 352 351 351 351 351 350 350 347 343 342 344 342 341 340 338 338 340 345 350 356 351 344 354 354 354 353 353 354
355 357 359 359 359 360 358 359 360 360 360 358 355 353 350 351 349 350 350 350 350 349 343 341 342 341 340 340 338 335 335 339 343 348 354 345 352 355 355 353 352 354 353
354 358 357 358 357 357 356 357 359 359 357 356 353 349 348 349 349 350 350 349 349 345 341 341 340 339 339 338 338 335 334 334 339 344 339 344 350 354 355 354 354 353 353
355 358 359 357 357 356 355 357 358 356 354 352 349 347 346 347 349 349 349 348 347 341 340 340 339 340 339 338 337 337 335 333 334 333 329 334 342 345 346 346 349 345 342
353 355 358 356 356 354 355 355 355 354 352 349 347 346 346 346 348 348 348 347 345 340 339 338 339 339 338 337 337 336 335 334 336 327 328 330 335 338 338 339 339 338 336
349 353 357 354 354 355 355 355 354 353 350 348 346 344 344 346 348 348 347 345 342 340 338 337 338 338 336 336 335 334 333 332 327 326 326 327 332 336 333 333 333 333 332
347 350 353 353 354 354 355 353 354 351 348 347 345 344 342 344 346 346 344 341 340 339 337 337 337 336 334 334 333 332 331 329 327 326 326 324 330 330 334 331 329 330 329
347 347 351 352 352 353 352 353 352 349 347 346 345 344 342 341 341 340 340 340 339 338 336 336 335 333 332 331 331 329 327 326 326 325 323 324 330 331 331 333 333 332 331
348 349 351 353 353 352 352 350 350 347 345 345 343 342 341 340 339 337 341 338 337 337 336 334 333 330 328 327 327 326 326 328 324 324 323 325 326 329 332 334 334 334 335
343 347 348 347 351 352 349 349 347 345 343 343 342 342 339 338 336 333 336 334 336 337 336 332 330 327 326 327 323 322 325 325 324 323 321 324 324 328 330 332 332 334 334
337 338 341 346 347 350 350 349 342 340 333 337 340 340 339 342 341 336 338 336 336 336 333 330 328 328 330 329 327 328 324 324 323 322 322 322 323 327 329 331 331 334 336
335 337 340 342 344 344 348 344 338 340 338 337 339 341 343 340 339 338 339 339 340 335 335 332 333 332 330 327 325 324 324 324 323 323 323 321 323 327 329 330 333 330 333
337 338 339 339 340 343 341 341 340 334 332 333 339 339 339 339 340 339 337 339 338 336 334 334 331 330 328 326 325 324 324 323 323 323 324 320 324 328 333 329 329 326 327
333 335 336 337 338 338 339 335 333 331 332 335 337 338 338 337 338 337 337 335 334 333 331 330 324 323 323 326 325 324 323 322 322 323 323 322 324 328 327 326 324 324 325
332 334 335 335 336 337 336 335 333 336 336 334 334 335 335 334 332 332 328 331 328 329 323 322 320 322 325 325 324 323 323 322 322 323 323 326 325 325 325 325 326 324 325
331 333 334 334 336 336 335 332 332 328 328 327 330 330 332 331 329 328 325 325 324 323 323 322 323 323 324 322 322 321 321 322 321 322 323 324 326 325 325 326 325 326 324
326 325 327 326 326 328 329 329 328 328 327 326 328 325 329 324 326 325 326 324 326 324 322 322 321 317 318 319 319 319 320 320 320 320 322 323 325 324 325 325 325 325 324
321 322 322 326 325 328 330 329 326 325 325 323 324 321 321 321 321 322 324 325 324 321 320 318 319 315 314 315 316 318 319 319 320 319 320 321 324 323 323 323 321 322 324
324 325 324 324 326 325 324 324 323 322 325 329 326 326 322 322 321 322 322 324 324 324 320 319 316 317 314 314 317 317 318 319 319 320 319 319 320 322 323 324 324 323 322
325 324 324 324 325 323 320 318 317 316 319 321 322 324 324 322 322 323 321 323 326 324 325 325 319 314 316 319 316 316 317 318 319 319 320 319 319 320 321 321 322 321 322
323 323 323 324 324 322 318 319 318 318 318 320 319 320 321 320 320 320 321 321 323 323 326 324 322 315 313 317 314 313 308 311 316 317 319 318 319 319 319 322 323 323 322
321 322 323 324 324 322 321 317 317 317 317 315 316 316 318 320 320 321 321 321 322 322 321 325 324 317 315 316 319 313 306 304 309 314 316 317 317 316 319 320 320 320 322
320 322 323 324 323 320 321 318 318 313 311 314 314 315 317 319 319 320 320 321 322 320 321 324 323 321 319 314 318 317 317 315 308 307 313 314 315 316 317 318 319 320 320
320 321 322 321 320 319 320 319 316 315 314 313 314 316 317 319 318 319 320 320 321 319 321 321 321 321 319 318 317 317 317 317 316 309 305 313 311 312 314 315 317 319 319
319 319 318 316 317 318 317 317 317 315 315 313 314 313 312 313 315 318 318 319 321 320 320 320 321 321 321 318 317 320 318 315 313 312 309 311 308 310 312 313 314 318 318
Wind_Speed
10 15 11 11 12 12 12 13 14 15 15 15 16 17 17 16 16 17 17 17 16 16 17 18 18 17 18 17 17 17 17 15 12 10 6 2 5 5 3 2 5 7 7
13 14 11 11 12 13 13 12 13 12 14 14 16 15 16 15 16 15 15 15 16 17 18 18 18 18 18 17 17 17 18 17 15 10 10 7 9 4 3 3 5 10 6
13 12 14 10 10 9 10 12 13 12 13 15 15 15 15 14 14 15 15 15 15 17 18 18 18 18 18 17 17 18 17 15 13 12 13 7 13 5 4 4 5 6 5
9 8 11 11 11 10 9 8 10 13 14 14 14 14 14 13 14 14 15 15 16 17 18 18 18 17 17 17 17 17 17 15 12 15 6 7 10 12 10 8 9 8 9
9 8 11 10 11 10 9 9 11 11 12 13 14 13 12 13 12 13 13 14 15 16 17 17 16 16 16 16 16 16 16 16 16 7 10 10 7 11 9 8 7 8 9
9 9 12 9 10 9 10 8 12 11 10 10 11 13 13 13 11 12 13 13 15 15 15 14 14 14 14 14 14 14 15 15 19 10 7 6 4 9 6 6 7 6 6
8 12 10 9 9 9 9 9 11 9 9 9 9 11 12 11 11 11 12 12 13 13 13 13 12 13 13 13 13 13 12 13 12 9 8 6 10 9 4 3 3 3 3
9 8 10 10 8 7 9 9 11 9 8 9 9 10 10 10 10 10 10 10 10 10 11 11 11 11 11 11 12 13 12 12 12 8 9 7 13 8 8 4 2 2 2
8 6 11 5 10 7 7 9 11 10 9 9 10 9 9 9 9 9 9 8 8 8 9 9 9 9 9 10 10 10 10 9 11 7 8 6 15 12 10 10 6 5 6
8 13 8 7 7 4 6 6 11 11 9 9 10 9 9 9 8 7 8 7 6 7 8 7 8 7 6 5 7 10 11 13 10 8 6 8 10 11 11 10 11 12 10
11 10 8 8 6 6 4 7 8 9 8 9 9 6 9 6 8 9 8 5 5 8 7 6 6 3 4 7 3 5 12 6 9 6 6 12 10 11 10 11 10 11 12
11 10 7 7 5 3 5 8 9 6 4 3 5 6 5 2 3 6 2 6 6 6 5 5 5 8 7 8 7 5 6 8 7 7 4 9 9 10 11 10 8 8 11
7 6 6 6 5 3 7 6 5 4 3 4 4 5 2 3 5 6 4 7 6 9 8 9 6 5 7 6 6 6 7 7 5 6 6 6 8 9 10 10 9 6 12
12 13 12 11 9 9 6 5 3 2 2 3 2 5 4 5 3 5 5 3 4 4 4 3 6 6 7 7 7 7 8 7 5 5 4 3 7 8 11 7 4 4 6
13 12 14 13 12 10 7 6 5 5 5 5 3 7 6 5 3 4 3 5 5 5 5 7 7 6 9 7 6 6 7 7 7 5 5 5 5 6 6 4 3 4 6
11 12 12 13 13 12 11 11 8 7 5 5 6 8 8 7 7 5 7 5 6 6 5 5 7 6 8 7 6 6 7 7 7 7 6 3 5 4 5 5 5 5 7
11 10 9 10 11 10 10 9 7 5 7 8 8 9 9 8 7 6 3 3 2 2 4 4 7 9 6 6 7 6 5 5 6 5 7 6 7 9 4 5 6 6 7
10 12 12 11 12 12 10 9 7 7 6 5 6 6 9 8 8 5 4 4 4 3 1 3 4 5 8 6 7 6 5 5 5 5 4 6 4 5 9 7 6 6 5
10 10 10 10 11 10 10 7 4 5 4 2 2 2 5 4 6 4 6 4 2 1 2 2 4 3 3 3 8 7 6 5 5 4 4 5 3 7 5 10 4 1 5
9 10 12 11 11 8 7 5 6 6 4 2 3 4 3 4 4 3 5 6 4 6 5 4 4 2 2 6 9 7 6 5 5 3 4 5 5 6 7 5 5 8 7
9 9 11 11 10 8 8 9 8 9 6 6 4 6 6 7 7 6 7 7 7 6 9 7 6 6 7 4 9 7 6 5 5 3 3 4 3 5 6 5 5 6 2
9 10 10 10 9 8 9 7 7 7 7 6 5 7 6 9 8 8 7 9 8 8 9 9 7 3 2 7 9 7 8 6 6 6 3 3 4 6 3 2 0 3 5
9 9 9 9 10 9 10 8 8 8 7 6 8 7 9 7 8 8 8 8 9 9 7 7 7 9 7 6 5 6 3 2 3 3 6 3 5 6 4 5 4 3 2
8 8 9 9 9 9 10 10 10 8 9 7 7 8 10 9 8 9 7 8 8 8 6 6 7 8 7 6 3 5 6 6 3 3 2 2 5 4 6 4 4 4 5
7 8 8 9 9 9 10 10 10 11 10 9 9 11 9 6 5 7 8 8 8 7 7 6 6 6 5 6 5 3 4 4 4 5 4 1 3 5 6 5 5 4 5
6 8 8 9 9 9 11 10 10 12 11 10 10 10 9 9 5 7 9 8 7 6 5 5 5 6 6 5 5 3 3 2 2 1 4 4 5 4 4 6 7 4 5
Wind_Direction
146 127 142 138 130 123 123 122 121 122 122 116 114 111 112 113 115 116 115 114 109 99 90 83 78 75 71 62 52 45 41 37 34 22 2 126 166 154 143 149 251 104 68
125 134 139 143 139 134 133 131 126 120 116 116 117 118 119 120 119 116 113 107 102 94 87 79 74 71 67 61 54 46 39 30 25 4 325 119 108 106 52 127 5 67 74
113 131 155 143 137 129 130 134 131 124 121 121 121 122 124 122 118 112 109 103 98 97 89 83 81 77 70 61 52 44 37 31 12 340 303 53 91 56 52 63 55 71 73
111 145 142 143 131 125 125 125 124 125 126 127 129 133 128 118 114 113 112 109 104 97 90 87 81 77 72 64 57 47 34 21 357 322 21 43 83 53 55 70 75 79 93
131 141 120 133 127 134 142 138 123 121 127 132 132 126 114 107 107 111 110 106 101 95 89 86 80 76 72 64 55 47 35 12 336 348 12 14 345 63 43 40 112 88 46
136 115 116 130 126 133 146 143 126 130 133 132 130 123 120 117 117 118 111 106 105 99 92 89 83 78 72 65 55 42 26 8 322 16 12 34 332 35 30 40 45 62 63
117 102 116 119 124 140 148 142 127 134 130 126 122 120 118 111 111 113 114 115 110 101 89 82 76 71 60 52 42 34 24 360 338 8 348 346 49 24 359 32 47 54 51
99 131 139 125 128 153 137 146 133 130 124 115 107 108 105 104 106 108 105 106 104 101 93 86 82 74 61 46 30 18 8 355 323 0 348 332 52 357 323 284 273 271 286
70 89 62 76 129 129 133 149 126 119 112 106 103 108 113 110 109 104 104 105 111 114 105 94 92 73 53 39 27 7 352 333 312 353 333 327 24 342 313 303 278 267 262
66 58 45 55 41 66 142 136 116 113 117 116 117 117 127 130 128 127 139 122 129 133 109 99 84 64 48 35 21 359 328 277 346 343 340 44 4 330 320 313 300 281 271
54 42 37 49 25 71 113 108 130 126 128 134 139 125 177 181 179 180 80 118 136 135 120 114 105 85 262 196 124 350 296 346 339 342 333 38 350 320 312 306 309 310 297
44 32 5 31 53 32 75 77 27 3 192 166 179 175 216 158 228 311 115 171 148 144 138 154 179 227 259 347 336 279 338 336 328 334 346 21 332 321 307 296 308 352 317
62 48 11 44 23 351 119 127 139 245 218 190 215 245 208 249 219 226 227 187 191 184 218 201 217 323 353 338 324 326 325 319 327 330 15 18 326 316 304 285 296 349 33
48 43 33 36 29 24 12 35 72 243 244 251 63 306 270 257 232 284 277 283 252 244 337 294 327 358 319 312 313 322 319 319 331 318 5 45 322 311 288 260 281 10 36
57 49 49 42 38 28 34 40 39 15 18 352 13 31 355 314 336 293 3 290 337 343 358 5 2 329 294 288 305 326 318 314 327 331 312 104 338 318 27 52 0 24 11
61 52 48 52 49 49 44 35 33 23 19 35 48 30 35 30 9 7 21 1 36 4 359 353 311 273 298 308 312 329 319 320 319 322 327 144 113 26 23 19 12 5 6
44 53 43 48 50 44 44 52 55 55 53 25 10 23 18 9 9 349 338 323 348 28 320 294 304 283 285 308 323 313 300 303 298 313 294 316 155 153 81 29 8 9 355
54 48 39 40 44 37 31 24 37 41 33 35 25 34 11 14 11 351 288 268 265 241 285 256 283 329 314 317 321 299 296 283 299 280 289 303 317 300 141 90 23 13 3
61 59 54 50 43 36 37 38 38 37 39 52 18 350 351 349 343 333 312 295 310 261 205 254 275 297 276 271 285 287 273 270 262 285 301 285 254 276 318 121 143 58 33
81 69 58 46 33 34 23 12 8 3 351 43 355 322 290 269 279 256 259 267 262 216 225 201 249 277 287 285 288 282 275 266 253 266 291 274 308 299 277 324 300 147 109
99 76 53 45 32 13 11 355 350 345 337 331 345 346 327 339 322 298 284 263 234 244 235 214 216 226 239 298 286 266 235 234 245 293 298 330 356 276 318 305 306 349 125
67 53 42 34 28 17 6 355 346 341 338 328 360 322 332 330 322 305 323 306 295 285 254 246 217 240 264 242 273 284 272 172 204 210 261 264 33 289 302 124 5 347 329
43 35 30 22 19 25 359 357 357 335 341 351 345 333 357 315 313 312 312 302 306 293 310 253 216 203 253 220 262 291 304 349 261 180 194 304 329 325 2 345 351 333 354
24 21 17 17 14 11 3 349 348 334 338 338 322 1 309 328 317 305 307 304 301 311 297 281 239 237 242 279 243 251 288 334 300 269 271 7 297 304 6 329 310 303 320
18 12 21 11 3 2 348 344 333 348 333 333 333 336 310 317 308 321 314 302 297 306 320 296 262 251 269 275 282 308 240 249 245 305 292 272 327 321 331 328 355 297 311
8 15 6 360 351 345 339 338 342 334 330 331 340 312 340 319 358 323 327 325 323 315 310 310 300 274 258 287 292 308 288 271 232 256 308 325 290 2 334 320 303 14 329